TimeEST,TemperatureF,Dew PointF,Humidity,Sea Level PressureIn,VisibilityMPH,Wind Direction,Wind SpeedMPH,Gust SpeedMPH,PrecipitationIn,Events,Conditions,WindDirDegrees,DateUTC
12:15 AM,37.8,36.1,94,30.07,10.0,Calm,Calm,-,N/A,,Clear,0,2013-02-05 05:15:00
12:35 AM,36.5,35.4,96,30.06,10.0,Calm,Calm,-,N/A,,Clear,0,2013-02-05 05:35:00
12:55 AM,37.4,35.8,94,30.06,10.0,Calm,Calm,-,N/A,,Clear,0,2013-02-05 05:55:00
1:15 AM,37.9,35.2,90,30.06,10.0,Calm,Calm,-,N/A,,Clear,0,2013-02-05 06:15:00
1:35 AM,37.4,35.2,92,30.06,10.0,Calm,Calm,-,N/A,,Clear,0,2013-02-05 06:35:00
1:55 AM,36.7,35.1,94,30.05,10.0,Calm,Calm,-,N/A,,Clear,0,2013-02-05 06:55:00
2:15 AM,37.4,34.7,90,30.04,10.0,Calm,Calm,-,N/A,,Clear,0,2013-02-05 07:15:00
2:35 AM,36.9,34.7,92,30.03,10.0,Calm,Calm,-,N/A,,Clear,0,2013-02-05 07:35:00
2:55 AM,36.0,33.8,92,30.03,10.0,Calm,Calm,-,N/A,,Clear,0,2013-02-05 07:55:00
3:15 AM,35.4,33.4,92,30.04,10.0,Calm,Calm,-,N/A,,Clear,0,2013-02-05 08:15:00
3:35 AM,34.3,33.1,95,30.04,10.0,Calm,Calm,-,N/A,,Clear,0,2013-02-05 08:35:00
3:55 AM,34.3,33.4,97,30.04,10.0,Calm,Calm,-,N/A,,Clear,0,2013-02-05 08:55:00
4:15 AM,32.4,32.4,100,30.04,10.0,Calm,Calm,-,N/A,,Clear,0,2013-02-05 09:15:00
4:35 AM,33.1,32.9,99,30.04,10.0,Calm,Calm,-,N/A,,Clear,0,2013-02-05 09:35:00
4:55 AM,32.5,32.4,99,30.03,10.0,Calm,Calm,-,N/A,,Clear,0,2013-02-05 09:55:00
5:15 AM,32.5,32.4,99,30.03,10.0,Calm,Calm,-,N/A,,Clear,0,2013-02-05 10:15:00
5:35 AM,32.0,32.0,100,30.04,10.0,Calm,Calm,-,N/A,,Clear,0,2013-02-05 10:35:00
5:55 AM,32.5,32.2,99,30.04,10.0,Calm,Calm,-,N/A,,Clear,0,2013-02-05 10:55:00
6:15 AM,32.0,32.0,100,30.04,10.0,Calm,Calm,-,N/A,,Clear,0,2013-02-05 11:15:00
6:35 AM,32.4,32.2,99,30.05,10.0,Calm,Calm,-,N/A,,Clear,0,2013-02-05 11:35:00
6:55 AM,32.2,32.2,100,30.06,10.0,Calm,Calm,-,N/A,,Clear,0,2013-02-05 11:55:00
7:15 AM,30.2,30.2,100,30.07,10.0,Calm,Calm,-,N/A,,Clear,0,2013-02-05 12:15:00
7:35 AM,30.9,30.9,100,30.08,10.0,Calm,Calm,-,N/A,,Scattered Clouds,0,2013-02-05 12:35:00
7:55 AM,32.5,32.5,100,30.08,10.0,Calm,Calm,-,N/A,,Scattered Clouds,0,2013-02-05 12:55:00
8:15 AM,37.4,35.2,92,30.08,10.0,Calm,Calm,-,N/A,,Scattered Clouds,0,2013-02-05 13:15:00
8:35 AM,40.1,36.0,85,30.08,10.0,SSW,3.5,-,N/A,,Mostly Cloudy,200,2013-02-05 13:35:00
8:55 AM,41.7,37.6,85,30.08,10.0,SSW,3.5,-,N/A,,Overcast,200,2013-02-05 13:55:00
9:15 AM,46.6,39.4,76,30.08,10.0,SSW,3.5,-,N/A,,Mostly Cloudy,200,2013-02-05 14:15:00
9:35 AM,49.3,39.7,70,30.09,10.0,SSW,3.5,-,N/A,,Scattered Clouds,210,2013-02-05 14:35:00
9:55 AM,52.0,41.2,67,30.08,10.0,SSW,3.5,-,N/A,,Scattered Clouds,200,2013-02-05 14:55:00
10:15 AM,54.3,42.8,65,30.09,10.0,West,4.6,-,N/A,,Clear,260,2013-02-05 15:15:00
10:55 AM,58.1,45.9,64,30.09,10.0,West,4.6,-,N/A,,Mostly Cloudy,260,2013-02-05 15:55:00
11:15 AM,61.7,48.9,63,30.08,10.0,West,6.9,-,N/A,,Mostly Cloudy,260,2013-02-05 16:15:00
11:55 AM,61.5,48.2,62,30.07,10.0,SW,9.2,-,N/A,,Overcast,220,2013-02-05 16:55:00
12:15 PM,61.7,48.6,62,30.07,10.0,WSW,6.9,-,N/A,,Overcast,250,2013-02-05 17:15:00
12:35 PM,61.7,48.6,62,30.06,10.0,West,13.8,-,N/A,,Overcast,280,2013-02-05 17:35:00
12:55 PM,61.2,49.1,65,30.05,10.0,WNW,10.4,19.6,N/A,,Overcast,300,2013-02-05 17:55:00
1:15 PM,62.8,48.4,59,30.04,10.0,WSW,6.9,-,N/A,,Overcast,250,2013-02-05 18:15:00
1:55 PM,62.4,48.0,59,30.03,10.0,West,9.2,-,N/A,,Overcast,280,2013-02-05 18:55:00
2:15 PM,62.2,48.4,60,30.03,10.0,WSW,6.9,-,N/A,,Overcast,250,2013-02-05 19:15:00
2:35 PM,62.1,48.7,62,30.03,10.0,West,8.1,-,N/A,,Overcast,270,2013-02-05 19:35:00
2:55 PM,64.4,49.1,58,30.03,10.0,West,9.2,-,N/A,,Overcast,260,2013-02-05 19:55:00
3:15 PM,63.0,49.3,61,30.02,10.0,WSW,10.4,18.4,N/A,,Overcast,250,2013-02-05 20:15:00
3:35 PM,62.4,49.3,62,30.02,10.0,West,13.8,-,N/A,,Overcast,280,2013-02-05 20:35:00
3:55 PM,62.8,49.3,61,30.02,10.0,West,10.4,-,N/A,,Mostly Cloudy,280,2013-02-05 20:55:00
4:15 PM,63.1,49.5,61,30.02,10.0,West,8.1,-,N/A,,Scattered Clouds,280,2013-02-05 21:15:00
4:35 PM,62.1,49.3,63,30.02,10.0,North,-9999.0,-,N/A,,Mostly Cloudy,0,2013-02-05 21:35:00
4:55 PM,61.7,49.3,64,30.03,10.0,West,4.6,-,N/A,,Overcast,260,2013-02-05 21:55:00
5:15 PM,61.3,49.8,66,30.02,10.0,Calm,Calm,-,N/A,,Overcast,0,2013-02-05 22:15:00
5:55 PM,57.7,49.5,74,30.01,10.0,Calm,Calm,-,N/A,,Scattered Clouds,0,2013-02-05 22:55:00
6:15 PM,57.2,49.5,75,30.01,10.0,Calm,Calm,-,N/A,,Clear,0,2013-02-05 23:15:00
6:35 PM,53.2,48.6,84,30.02,10.0,Calm,Calm,-,N/A,,Clear,0,2013-02-05 23:35:00
6:55 PM,51.8,48.2,88,30.03,10.0,Calm,Calm,-,N/A,,Clear,0,2013-02-05 23:55:00
7:15 PM,50.7,48.2,91,30.03,10.0,Calm,Calm,-,N/A,,Clear,0,2013-02-06 00:15:00
7:35 PM,50.5,48.2,92,30.03,10.0,Calm,Calm,-,N/A,,Scattered Clouds,0,2013-02-06 00:35:00
7:55 PM,48.0,46.4,94,30.04,10.0,Calm,Calm,-,N/A,,Scattered Clouds,0,2013-02-06 00:55:00
8:15 PM,47.3,46.6,97,30.05,10.0,Calm,Calm,-,N/A,,Scattered Clouds,0,2013-02-06 01:15:00
8:35 PM,47.5,46.8,97,30.05,10.0,Calm,Calm,-,N/A,,Mostly Cloudy,0,2013-02-06 01:35:00
8:55 PM,47.7,47.3,99,30.05,10.0,Calm,Calm,-,N/A,,Overcast,0,2013-02-06 01:55:00
9:15 PM,48.4,47.3,96,30.06,10.0,Calm,Calm,-,N/A,,Overcast,0,2013-02-06 02:15:00
9:35 PM,48.4,47.5,97,30.06,10.0,Calm,Calm,-,N/A,,Overcast,0,2013-02-06 02:35:00
9:55 PM,48.4,47.5,97,30.06,10.0,Calm,Calm,-,N/A,,Overcast,0,2013-02-06 02:55:00
10:15 PM,48.7,48.4,99,30.07,10.0,Calm,Calm,-,N/A,,Overcast,0,2013-02-06 03:15:00
10:35 PM,49.1,49.1,100,30.07,10.0,South,3.5,-,N/A,,Overcast,170,2013-02-06 03:35:00
10:55 PM,49.1,49.1,100,30.08,10.0,Calm,Calm,-,N/A,,Mostly Cloudy,0,2013-02-06 03:55:00
11:15 PM,49.1,49.1,100,30.07,10.0,Calm,Calm,-,N/A,,Overcast,0,2013-02-06 04:15:00
11:35 PM,48.9,48.9,100,30.08,10.0,Calm,Calm,-,N/A,,Overcast,0,2013-02-06 04:35:00
11:55 PM,48.4,48.4,100,30.08,10.0,Calm,Calm,-,N/A,,Overcast,0,2013-02-06 04:55:00